SCP
0 0 0 0 0 0 0 0 0 0 0 0 0 0 0 0 0 0 0 0 0 0 0 0 0 0 0 0 0 0 0 0 0 0 0 0 0 0 0 0 0 0 0 0
0 0 0 0 0 0 0 0 0 0 0 0 0 0 0 0 0 0 0 0 0 0 0 0 0 0 0 0 0 0 0 0 0 0 0 0 0 0 0 0 0 0 0 0
0 0 0 0 0 0 0 0 0 0 0 0 0 0 0 0 0 0 0 0 0 0 0 0 0 0 0 0 0 0 0 0 0 0 0 0 0 0 0 0 0 0 0 0
0 0 0 0 0 0 0 0 0 0 0 0 0 0 0 0 0 0 0 0 0 0 0 0 0 0 0 0 0 0 0 0 0 0 0 0 0 0 0 0 0 0 0 0
0 0 0 0 0 0 0 0 0 0 0 0 0 0 0 0 0 0 0 0 0 0 0 0 0 0 0 0 0 0 0 0 0 0 0 0 0 0 0 0 0 0 0 0
0 0 0 0 0 0 0 0 0 0 0 0 0 0 0 0 0 0 0 0 0 0 0 0 0 0 0 0 0 0 0 0 0 0 0 0 0 0 0 0 0 0 0 0
0 0 0 0 0 0 0 0 0 0 0 0 0 0 0 0 0 0 0 0 0 0 0 0 0 0 0 0 0 0 0 0 0 0 0 0 0 0 0 0 0 0 0 0
0 0 0 0 0 0 0 0 0 0 0 0 0 0 0 0 0 0 0 0 0 0 0 0 0 0 0 0 0 0 0 0 0 0 0 0 0 0 0 0 0 0 0 0
0 0 0 0 0 0 0 0 0 0 0 0 0 0 0 0 0 0 0 0 0 0 0 0 0 0 0 0 0 0 0 0 0 0 0 0 0 0 0 0 0 0 0 0
0 0 0 0 0 0 0 0 0 0 0 0 0 0 0 0 0 0 0 0 0 0 0 0 0 0 0 0 0 0 0 0 0 0 0 0 0 0 0 0 0 0 0 0
0 0 0 0 0 0 0 0 0 0 0 0 0 0 0 0 0 0 0 0 0 0 0 0 0 0 0 0 0 0 0 0 0 0 0 0 0 0 0 0 0 0 0 0
0 0 0 0 0 0 0 0 0 0 0 0 0 0 0 0 0 0 0 0 0 0 0 0 0 0 0 0 0 0 0 0 0 0 0 0 0 0 0 0 0 0 0 0
0 0 0 0 0 0 0 0 0 0 0 0 0 0 0 0 0 0 0 0 0 0 0 0 0 0 0 0 0 0 0 0 0 0 0 0 0 0 0 0 0 0 0 0
0 0 0 0 0 0 0 0 0 0 0 0 0 0 0 0 0 0 0 0 0 0 0 0 0 0 0 0 0 0 0 0 0 0 0 0 0 0 0 0 0 0 0 0
0 0 0 0 0 0 0 0 0 0 0 0 0 0 0 0 0 0 0 0 0 0 0 0 0 0 0 0 0 0 0 0 0 0 0 0 0 0 0 0 0 0 0 0
0 0 0 0 0 0 0 0 0 0 0 0 0 0 0 0 0 0 0 0 0 0 0 0 0 0 0 0 0 0 0 0 0 0 0 0 0 0 0 0 0 0 0 0
0 0 0 0 0 0 0 0 0 0 0 0 0 0 0 0 0 0 0 0 0 0 0 0 0 0 0 0 0 0 0 0 0 0 0 0 0 0 0 0 0 0 0 0
0 0 0 0 0 0 0 0 0 0 0 0 0 0 0 0 0 0 0 0 0 0 0 0 0 0 0 0 0 0 0 0 0 0 0 0 0 0 0 0 0 0 0 0
0 0 0 0 0 0 0 0 0 0 0 0 0 0 0 0 0 0 0 0 0 0 0 0 0 0 0 0 0 0 0 0 0 0 0 0 0 0 0 0 0 0 0 0
0 0 0 0 0 0 0 0 0 0 0 0 0 0 0 0 0 0 0 0 0 0 0 0 0 0 0 0 0 0 0 0 0 0 0 0 0 0 0 0 0 0 0 0
0 0 0 0 0 0 0 0 0 0 0 0 0 0 0 0 0 0 0 0 0 0 0 0 0 0 0 0 0 0 0 0 0 0 0 0 0 0 0 0 0 0 0 0
0 0 0 0 0 0 0 0 0 0 0 0 0 0 0 0 0 0 0 0 0 0 0 0 0 0 0 0 0 0 0 0 0 0 0 0 0 0 0 0 0 0 0 0
0 0 0 0 0 0 0 0 0 0 0 0 0 0 0 0 0 0 0 0 0 0 0 0 0 0 0 0 0 0 0 0 0 0 0 0 0 0 0 0 0 0 0 0
0 0 0 0 0 0 0 0 0 0 0 0 0 0 0 0 0 0 0 0 0 0 0 0 0 0 0 0 0 0 0 0 0 0 0 0 0 0 0 0 0 0 0 0
0 0 0 0 0 0 0 0 0 0 0 0 0 0 0 0 0 0 0 0 0 0 0 0 0 0 0 0 0 0 0 0 0 0 0 0 0 0 0 0 0 0 0 0
0 0 0 0 0 0 0 0 0 0 0 0 0 0 0 0 0 0 0 0 0 0 0 0 0 0 0 0 0 0 0 0 0 0 0 0 0 0 0 0 0 0 0 0
-0 0 0 0 0 0 0 0 0 0 0 0 0 0 0 0 0 0 0 0 0 0 0 0 0 0 0 0 0 0 0 0 0 0 0 0 0 0 0 0 0 0 0 0
Wind_Speed
5 4 3 5 6 7 10 9 8 6 7 7 4 3 2 1 1 1 1 1 1 1 1 1 1 1 1 1 1 1 1 1 0 0 0 1 0 0 0 1 1 1 1 1
4 4 4 7 8 9 11 10 11 10 12 6 4 2 2 2 1 0 1 0 0 0 1 1 1 1 1 1 1 1 1 0 1 1 1 1 0 0 0 0 1 1 1 1
3 1 2 9 10 11 9 8 8 12 11 3 3 3 3 2 1 1 1 1 1 1 0 1 1 1 1 1 1 1 0 1 1 1 1 1 1 0 0 1 1 1 1 1
1 0 9 8 4 8 9 8 9 8 5 3 4 2 1 0 0 1 1 1 1 1 1 2 1 1 1 1 1 1 1 1 1 1 1 1 1 1 1 1 1 1 1 1
3 5 9 5 3 4 6 6 6 8 7 4 2 1 1 2 1 0 0 1 1 1 2 2 2 2 1 1 1 1 1 1 2 1 1 1 1 2 1 1 1 1 1 1
5 6 9 4 2 1 2 5 3 4 5 2 1 2 2 1 2 2 2 2 2 2 3 2 3 2 1 1 1 1 2 2 2 1 1 2 2 2 1 1 1 1 1 1
7 8 8 3 1 3 5 5 2 2 1 1 2 2 1 2 2 3 3 3 2 2 2 2 3 2 1 1 2 2 2 2 2 1 2 2 1 1 1 1 1 1 1 2
6 8 9 0 3 4 3 2 3 4 3 1 1 2 2 2 2 3 3 3 2 2 2 2 2 2 1 2 3 2 2 2 2 1 1 1 1 1 1 1 1 1 2 2
7 7 1 2 3 0 2 2 3 3 3 2 2 2 2 2 2 2 2 2 2 1 2 2 2 1 2 3 3 2 2 2 2 1 1 1 0 1 1 1 1 1 2 2
4 4 3 2 1 2 2 2 3 3 3 3 3 3 3 2 2 2 2 2 2 2 2 2 2 2 2 3 2 2 2 2 2 1 1 1 1 1 1 1 2 2 2 3
5 4 3 4 3 4 3 3 3 4 3 3 3 3 3 3 3 2 2 2 1 1 2 3 3 2 2 2 2 2 2 2 2 1 1 1 1 2 2 2 3 3 3 3
6 4 4 4 3 3 3 4 4 4 4 3 3 4 3 3 3 2 3 2 2 2 3 4 3 3 2 2 1 2 2 2 2 2 1 1 2 2 4 4 5 6 5 4
6 4 4 5 3 2 3 4 4 3 4 5 4 3 3 3 3 2 3 3 3 4 4 4 3 3 3 2 2 2 3 3 2 2 2 2 2 2 3 4 5 6 6 7
3 3 5 4 4 3 3 3 3 3 4 3 4 3 3 3 3 3 4 4 4 4 4 4 3 4 3 2 2 3 3 3 3 3 3 3 3 3 3 3 4 4 5 8
3 3 5 5 4 3 3 3 3 4 4 4 3 3 3 4 5 5 4 4 4 4 4 3 4 4 2 2 3 4 4 3 3 3 3 3 3 3 3 3 4 4 4 5
4 3 3 4 5 4 4 3 4 5 4 4 4 4 4 5 5 5 4 3 3 5 5 4 5 4 2 3 3 3 3 4 4 3 3 3 3 3 3 3 4 4 4 4
2 3 3 4 5 5 5 4 4 5 5 5 5 5 4 4 5 5 5 4 5 6 5 5 6 5 3 3 4 3 3 4 4 3 3 3 3 4 4 4 4 5 5 5
3 4 4 4 4 5 5 5 4 5 5 5 5 4 4 4 6 7 7 5 5 5 5 5 5 4 4 4 4 3 3 3 3 4 3 3 4 4 4 4 5 5 5 5
3 3 4 4 3 4 4 5 5 5 5 4 5 5 5 6 6 6 6 5 5 6 5 4 6 4 4 5 4 3 4 4 4 3 3 4 4 4 4 4 5 5 5 4
4 4 4 4 4 3 4 5 5 5 5 4 4 5 5 6 5 5 5 5 5 5 4 4 5 4 4 4 4 3 4 4 4 4 3 4 4 4 4 5 5 5 5 4
4 4 4 4 5 4 4 4 4 5 5 4 4 5 6 6 5 4 4 6 4 3 4 5 4 4 4 4 4 3 4 4 4 4 4 4 4 5 5 5 5 5 5 4
4 4 5 5 5 5 5 4 4 5 5 5 5 5 6 6 5 5 5 5 5 4 4 4 4 4 5 4 3 4 4 4 4 4 4 4 4 5 5 5 5 5 4 4
3 4 4 5 5 6 6 4 4 4 5 5 5 5 6 6 4 4 6 4 4 6 5 4 6 7 7 4 3 4 4 4 4 4 4 4 4 4 5 5 5 5 5 5
3 4 4 4 4 4 5 6 5 4 5 5 5 5 5 5 5 4 4 5 6 6 5 5 8 8 6 3 3 3 4 4 4 4 4 4 4 4 4 5 5 5 5 5
3 4 4 4 4 4 5 5 5 5 5 4 5 5 4 4 5 5 5 6 7 7 5 6 8 7 4 3 3 3 4 4 4 4 4 4 4 4 4 5 5 5 5 5
3 3 4 4 4 4 4 4 4 4 4 5 5 4 4 4 5 5 5 5 6 6 6 5 4 4 3 3 3 4 4 4 4 4 4 4 5 5 5 5 6 6 6 6
3 3 3 3 3 3 3 4 4 5 4 5 6 5 4 4 4 5 5 5 5 4 4 4 4 3 3 3 4 4 4 3 4 4 4 4 4 5 5 6 6 6 6 6
Wind_Direction
261 279 258 240 226 207 213 220 223 235 236 256 257 267 285 273 110 103 92 82 86 69 32 21 18 15 14 11 19 33 66 62 332 344 44 74 102 168 201 189 210 214 212 233
265 249 251 262 244 225 231 236 245 257 265 265 266 266 277 270 217 252 301 319 333 36 28 1 343 335 357 1 11 52 77 6 5 21 39 53 54 67 31 279 248 215 213 223
251 253 317 262 229 215 218 219 221 239 246 254 269 260 259 260 243 253 288 327 351 10 338 302 305 318 280 317 26 54 49 16 23 23 4 355 18 40 281 267 276 259 252 238
234 132 240 239 189 194 210 229 225 239 257 263 258 264 279 59 174 292 324 342 4 12 9 353 342 351 2 36 50 46 20 3 2 2 327 344 343 285 284 315 286 275 286 275
198 238 263 265 222 196 210 250 229 234 250 263 286 314 356 44 44 321 322 18 26 37 33 12 359 360 40 40 39 36 1 345 340 327 306 299 277 278 284 290 289 295 307 304
206 224 241 245 200 206 173 263 266 232 243 238 139 227 253 43 45 27 43 53 46 40 35 19 359 13 47 17 12 317 302 308 325 315 281 269 275 288 307 291 285 300 311 315
220 234 254 275 227 128 185 248 356 349 304 183 191 229 323 39 45 45 44 45 46 44 35 10 360 14 16 337 296 301 320 323 333 315 284 282 298 311 320 320 326 321 316 322
206 226 246 55 126 175 228 8 15 5 4 13 319 4 25 32 31 30 26 25 32 29 14 10 7 7 323 301 313 333 328 317 313 304 296 310 309 320 339 330 313 312 317 318
203 219 246 131 156 155 21 7 353 349 352 1 330 320 339 350 356 1 3 1 7 4 352 356 358 353 295 311 334 331 316 298 306 312 316 327 280 279 310 297 282 292 294 292
247 261 287 290 305 352 360 333 329 337 340 341 309 305 309 318 326 334 345 342 355 352 330 326 331 321 305 322 327 308 288 293 303 287 305 322 307 271 252 256 265 279 281 286
251 275 301 287 295 307 315 320 324 328 331 319 308 304 306 305 307 312 320 329 337 316 298 302 313 312 325 330 327 301 287 287 281 258 255 272 277 272 267 260 258 260 255 259
242 241 248 272 305 318 310 312 315 318 319 322 304 290 291 288 293 301 305 312 314 305 296 301 310 310 324 326 305 285 284 280 274 262 255 256 270 293 290 289 293 287 289 290
263 284 270 280 302 324 301 304 309 304 297 303 304 290 282 285 292 298 297 296 287 286 288 293 296 298 310 314 290 261 268 270 269 258 247 249 253 261 285 300 294 290 292 295
275 294 278 283 294 307 304 309 318 313 303 300 303 306 297 290 293 290 287 288 289 289 289 286 281 284 296 290 272 260 264 258 257 253 246 242 244 251 256 267 285 291 288 287
290 276 264 289 304 317 328 332 321 307 310 314 315 305 298 292 287 287 292 296 292 282 281 281 278 283 290 267 258 254 253 254 254 253 250 249 251 253 256 258 267 282 296 293
294 296 295 294 296 305 313 309 294 291 298 300 302 297 292 286 285 287 288 289 283 277 279 278 275 281 275 258 261 256 252 259 257 252 248 247 247 248 252 257 263 268 270 279
280 278 288 291 293 297 297 295 291 293 298 294 293 296 296 294 290 286 283 278 269 267 267 266 272 275 259 248 248 256 258 262 256 249 245 245 246 245 247 251 257 263 266 271
270 273 277 276 283 294 302 308 305 301 298 298 301 298 290 283 281 284 289 290 287 282 273 268 271 270 260 252 246 248 249 251 247 244 247 247 251 250 249 251 256 263 274 275
318 312 316 312 305 298 299 302 302 299 300 303 300 289 281 276 277 283 290 288 283 281 282 280 288 285 270 261 256 243 246 252 254 249 246 249 252 248 246 248 254 259 265 270
346 341 332 326 326 311 300 302 303 300 300 299 294 293 293 291 291 290 287 273 260 264 283 293 292 282 273 266 264 248 246 248 250 251 247 247 251 252 251 252 254 258 261 262
333 332 330 326 322 317 305 302 300 297 302 302 291 287 287 289 289 286 283 280 281 282 286 284 279 276 272 270 258 249 247 247 245 246 248 250 254 256 255 253 254 257 260 264
325 322 319 320 318 314 312 307 301 299 303 302 294 290 290 290 290 281 262 261 285 300 298 287 279 276 277 272 258 252 251 248 246 247 248 249 252 257 260 261 260 261 261 262
312 311 313 314 309 305 310 309 302 299 297 295 293 290 287 286 286 282 285 282 294 297 295 283 284 285 282 269 257 254 250 249 250 250 250 250 250 254 260 264 266 267 266 265
310 312 309 309 311 311 311 311 307 296 290 286 283 281 283 289 287 268 272 294 299 296 291 288 290 292 293 278 266 261 257 255 253 254 254 255 255 256 258 262 267 268 268 268
305 305 307 313 311 301 301 311 313 307 302 294 291 285 274 265 270 285 290 287 289 293 290 292 295 295 290 274 264 260 262 261 259 258 257 258 260 262 262 263 263 267 268 267
302 297 292 288 287 293 303 307 305 306 308 305 302 297 291 284 279 283 286 287 286 285 283 284 284 283 275 269 266 266 267 270 272 267 259 259 261 263 265 267 266 266 267 267
299 297 300 304 301 301 301 300 298 299 300 298 300 300 299 296 292 290 289 290 291 287 285 284 282 279 277 275 274 274 273 272 270 270 270 269 266 265 265 265 268 269 269 269